Volver al catálogo

GENMAT-1

ActivoCienciaSSO
NORAD 58276·PAYLOAD·🇺🇸 United States

Lanzado Nov 11, 2023 desde Vandenberg Space Force Base

Loading…

Próximos Pases (próximas 24 horas)

TLE

ActualizadoSource: Space-Track

Época: Sep 14, 2026, 11:20 UTC

1 58276U 23174W   26257.47245204  .00007714  00000-0  22195-3 0  9996
2 58276  97.3615 335.2519 0005347 212.4082 147.6834 15.36048769158676

Sigue GENMAT-1 en tiempo real con AllMySat

Download on the App Store